• In Deutschland
  • Länderverzeichnis
  • Für 7 Tage
  • Wassertemperatur
  • Satellitenkarten
  • Wetterkarte
  • Widgets
  • user-avatar
    Anmelden

    Stündliche Wetter Gmund

    Heute, 14 August, Dienstag

    Zeit Temperatur Niederschläge Wind Luftdruck Luftfeuchtigkeit
    00:00 +14°C° 1 mm 2 m/S 672 mmHg 95%
    01:00 +14°C° 0 mm 2 m/S 671 mmHg 95%
    02:00 +14°C° 0,3 mm 2 m/S 671 mmHg 95%
    03:00 +13°C° 0,3 mm 2 m/S 671 mmHg 95%
    04:00 +13°C° 0,3 mm 2 m/S 671 mmHg 95%
    05:00 +13°C° 0,1 mm 2 m/S 672 mmHg 95%
    06:00 +14°C° 0,1 mm 1 m/S 672 mmHg 94%
    07:00 +14°C° 0 mm 2 m/S 672 mmHg 93%
    08:00 +15°C° 0,5 mm 2 m/S 673 mmHg 91%
    09:00 +16°C° 0,5 mm 2 m/S 673 mmHg 88%
    10:00 +18°C° 0,5 mm 1 m/S 673 mmHg 85%
    11:00 +18°C° 0,7 mm 2 m/S 673 mmHg 83%
    12:00 +18°C° 0,7 mm 2 m/S 673 mmHg 82%
    13:00 +18°C° 0,7 mm 2 m/S 674 mmHg 80%
    14:00 +18°C° 0,7 mm 2 m/S 674 mmHg 82%
    15:00 +18°C° 0,7 mm 2 m/S 674 mmHg 83%
    16:00 +18°C° 0,7 mm 2 m/S 674 mmHg 84%
    17:00 +17°C° 0,3 mm 2 m/S 674 mmHg 86%
    18:00 +16°C° 0,3 mm 1 m/S 674 mmHg 89%
    19:00 +15°C° 0,3 mm 1 m/S 674 mmHg 91%
    20:00 +14°C° 0 mm 1 m/S 674 mmHg 92%
    21:00 +13°C° 0 mm 2 m/S 675 mmHg 93%
    22:00 +13°C° 0 mm 2 m/S 675 mmHg 93%
    23:00 +12°C° 0 mm 2 m/S 675 mmHg 94%

    Morgen, 15 August, Mittwoch

    Zeit Temperatur Niederschläge Wind Luftdruck Luftfeuchtigkeit
    00:00 +12°C° 0 mm 2 m/S 675 mmHg 94%
    01:00 +10°C° 0 mm 2 m/S 675 mmHg 94%
    02:00 +10°C° 0 mm 2 m/S 675 mmHg 94%
    03:00 +10°C° 0 mm 2 m/S 675 mmHg 94%
    04:00 +10°C° 0 mm 2 m/S 675 mmHg 93%
    05:00 +12°C° 0 mm 2 m/S 675 mmHg 92%
    06:00 +12°C° 0 mm 1 m/S 675 mmHg 91%
    07:00 +13°C° 0 mm 1 m/S 676 mmHg 90%
    08:00 +15°C° 0 mm 1 m/S 676 mmHg 81%
    09:00 +18°C° 0 mm 1 m/S 677 mmHg 73%
    10:00 +21°C° 0 mm 1 m/S 677 mmHg 64%
    11:00 +21°C° 0,1 mm 1 m/S 677 mmHg 61%
    12:00 +22°C° 0,1 mm 1 m/S 677 mmHg 59%
    13:00 +23°C° 0,1 mm 1 m/S 677 mmHg 56%
    14:00 +23°C° 0,1 mm 2 m/S 677 mmHg 57%
    15:00 +23°C° 0,1 mm 2 m/S 677 mmHg 58%
    16:00 +23°C° 0,1 mm 2 m/S 677 mmHg 59%
    17:00 +21°C° 0,1 mm 1 m/S 677 mmHg 68%
    18:00 +19°C° 0,1 mm 1 m/S 676 mmHg 78%
    19:00 +16°C° 0,1 mm 1 m/S 676 mmHg 87%
    20:00 +15°C° 0 mm 1 m/S 676 mmHg 89%
    21:00 +14°C° 0 mm 1 m/S 676 mmHg 91%
    22:00 +14°C° 0 mm 1 m/S 676 mmHg 93%
    23:00 +13°C° 0 mm 1 m/S 676 mmHg 93%

    übermorgen, 16 August, Donnerstag

    Zeit Temperatur Niederschläge Wind Luftdruck Luftfeuchtigkeit
    00:00 +13°C° 0 mm 1 m/S 676 mmHg 93%
    01:00 +12°C° 0 mm 1 m/S 676 mmHg 93%
    02:00 +12°C° 0 mm 1 m/S 676 mmHg 93%
    03:00 +12°C° 0 mm 1 m/S 675 mmHg 92%
    04:00 +12°C° 0 mm 1 m/S 675 mmHg 92%
    05:00 +13°C° 0 mm 1 m/S 675 mmHg 89%
    06:00 +14°C° 0 mm 1 m/S 675 mmHg 86%
    07:00 +15°C° 0 mm 1 m/S 676 mmHg 83%
    08:00 +18°C° 0 mm 1 m/S 676 mmHg 74%
    09:00 +20°C° 0 mm 1 m/S 676 mmHg 65%
    10:00 +23°C° 0 mm 1 m/S 677 mmHg 55%
    11:00 +24°C° 0 mm 1 m/S 677 mmHg 53%
    12:00 +24°C° 0 mm 2 m/S 676 mmHg 51%
    13:00 +25°C° 0 mm 2 m/S 676 mmHg 48%
    14:00 +25°C° 0 mm 2 m/S 676 mmHg 51%
    15:00 +25°C° 0 mm 2 m/S 675 mmHg 53%
    16:00 +25°C° 0 mm 2 m/S 675 mmHg 55%
    17:00 +23°C° 0 mm 2 m/S 675 mmHg 65%
    18:00 +21°C° 0 mm 1 m/S 674 mmHg 75%
    19:00 +19°C° 0 mm 1 m/S 674 mmHg 85%
    20:00 +18°C° 0 mm 1 m/S 674 mmHg 88%
    21:00 +16°C° 0 mm 1 m/S 674 mmHg 90%
    22:00 +15°C° 0 mm 1 m/S 674 mmHg 92%
    23:00 +15°C° 0 mm 1 m/S 674 mmHg 92%

    17 August, Freitag

    Zeit Temperatur Niederschläge Wind Luftdruck Luftfeuchtigkeit
    00:00 +14°C° 0 mm 1 m/S 674 mmHg 91%
    01:00 +14°C° 0 mm 1 m/S 674 mmHg 91%
    02:00 +14°C° 0 mm 1 m/S 674 mmHg 90%
    03:00 +13°C° 0 mm 1 m/S 674 mmHg 90%
    04:00 +13°C° 0 mm 1 m/S 673 mmHg 90%
    05:00 +14°C° 0 mm 1 m/S 674 mmHg 87%
    06:00 +15°C° 0 mm 1 m/S 674 mmHg 85%
    07:00 +16°C° 0 mm 1 m/S 674 mmHg 83%
    08:00 +19°C° 0 mm 1 m/S 675 mmHg 75%
    09:00 +22°C° 0 mm 1 m/S 675 mmHg 66%
    10:00 +24°C° 0 mm 1 m/S 676 mmHg 58%
    11:00 +24°C° 0,1 mm 1 m/S 676 mmHg 57%
    12:00 +25°C° 0,1 mm 1 m/S 676 mmHg 55%
    13:00 +26°C° 0,1 mm 2 m/S 676 mmHg 54%
    14:00 +25°C° 0,7 mm 2 m/S 676 mmHg 59%
    15:00 +25°C° 0,7 mm 2 m/S 675 mmHg 64%
    16:00 +24°C° 0,7 mm 1 m/S 675 mmHg 68%
    17:00 +22°C° 1,1 mm 1 m/S 675 mmHg 75%
    18:00 +21°C° 1,1 mm 1 m/S 675 mmHg 81%
    19:00 +19°C° 1,1 mm 1 m/S 675 mmHg 88%
    20:00 +18°C° 0,3 mm 1 m/S 675 mmHg 89%
    21:00 +18°C° 0,3 mm 1 m/S 676 mmHg 91%
    22:00 +16°C° 0,3 mm 2 m/S 676 mmHg 92%
    23:00 +16°C° 0 mm 2 m/S 676 mmHg 92%

    18 August, Samstag

    Zeit Temperatur Niederschläge Wind Luftdruck Luftfeuchtigkeit
    00:00 +15°C° 0 mm 2 m/S 676 mmHg 93%
    01:00 +15°C° 0 mm 2 m/S 676 mmHg 93%
    02:00 +14°C° 0 mm 2 m/S 676 mmHg 93%
    03:00 +14°C° 0 mm 2 m/S 676 mmHg 93%
    04:00 +13°C° 0 mm 1 m/S 676 mmHg 93%
    05:00 +14°C° 0,1 mm 1 m/S 676 mmHg 92%
    06:00 +15°C° 0,1 mm 1 m/S 677 mmHg 91%
    07:00 +15°C° 0,1 mm 1 m/S 677 mmHg 90%
    08:00 +18°C° 0,1 mm 1 m/S 677 mmHg 86%
    09:00 +19°C° 0,1 mm 1 m/S 678 mmHg 82%
    10:00 +21°C° 0,1 mm 1 m/S 678 mmHg 77%
    11:00 +20°C° 0,3 mm 2 m/S 678 mmHg 74%
    12:00 +21°C° 0,3 mm 2 m/S 678 mmHg 72%
    13:00 +23°C° 0,3 mm 2 m/S 678 mmHg 69%
    14:00 +23°C° 0,7 mm 2 m/S 678 mmHg 71%
    15:00 +23°C° 0,7 mm 2 m/S 678 mmHg 74%
    16:00 +21°C° 0,7 mm 2 m/S 678 mmHg 76%
    17:00 +21°C° 0,8 mm 1 m/S 678 mmHg 82%
    18:00 +20°C° 0,8 mm 1 m/S 678 mmHg 87%
    19:00 +19°C° 0,8 mm 1 m/S 678 mmHg 92%
    20:00 +18°C° 0,3 mm 1 m/S 678 mmHg 92%
    21:00 +16°C° 0,3 mm 1 m/S 678 mmHg 93%
    22:00 +15°C° 0,3 mm 1 m/S 678 mmHg 94%
    23:00 +15°C° 0 mm 1 m/S 678 mmHg 94%

    19 August, Sonntag

    Zeit Temperatur Niederschläge Wind Luftdruck Luftfeuchtigkeit
    00:00 +15°C° 0 mm 1 m/S 678 mmHg 94%
    01:00 +14°C° 0 mm 1 m/S 678 mmHg 94%
    02:00 +14°C° 0 mm 1 m/S 678 mmHg 94%
    03:00 +14°C° 0 mm 1 m/S 678 mmHg 94%
    04:00 +12°C° 0 mm 0 m/S 678 mmHg 94%
    05:00 +13°C° 0 mm 0 m/S 678 mmHg 92%
    06:00 +14°C° 0 mm 0 m/S 678 mmHg 91%
    07:00 +15°C° 0 mm 0 m/S 679 mmHg 90%
    08:00 +17°C° 0 mm 0 m/S 679 mmHg 81%
    09:00 +21°C° 0 mm 1 m/S 679 mmHg 73%
    10:00 +22°C° 0 mm 1 m/S 680 mmHg 64%
    11:00 +23°C° 0 mm 1 m/S 680 mmHg 62%
    12:00 +23°C° 0 mm 2 m/S 679 mmHg 60%
    13:00 +24°C° 0 mm 2 m/S 679 mmHg 59%
    14:00 +24°C° 0,1 mm 2 m/S 679 mmHg 59%
    15:00 +24°C° 0,1 mm 2 m/S 679 mmHg 59%
    16:00 +24°C° 0,1 mm 1 m/S 679 mmHg 59%
    17:00 +22°C° 0,1 mm 1 m/S 679 mmHg 66%
    18:00 +20°C° 0,1 mm 1 m/S 678 mmHg 73%
    19:00 +19°C° 0,1 mm 1 m/S 678 mmHg 80%
    20:00 +18°C° 0 mm 1 m/S 678 mmHg 82%
    21:00 +16°C° 0 mm 1 m/S 678 mmHg 84%
    22:00 +15°C° 0 mm 1 m/S 678 mmHg 86%
    23:00 +15°C° 0 mm 1 m/S 678 mmHg 88%
    Mehr zeigen